Regional Weather Roundup
Issued by NWS

Home | Current Version | Previous Version | Text Only | Print | Product List | Glossary Off
Versions: 1 2 3 4 5 6 7 8 9 10 11 12 13 14 15 16 17 18 19 20 21 22 23 24 25 26 27 28 29 30 31 32 33 34 35 36 37 38 39 40 41 42 43 44 45 46 47 48 49 50

000
ASUS43 KFSD 271102
RWRSD

WEATHER ROUNDUP FOR SOUTH DAKOTA
NATIONAL WEATHER SERVICE SIOUX FALLS SD
600 AM CDT TUE JUN 27 2017

NOTE: "FAIR" INDICATES FEW OR NO CLOUDS BELOW 12,000 FEET WITH NO
SIGNIFICANT WEATHER AND/OR OBSTRUCTIONS TO VISIBILITY.


SDZ001>005-009-010-012>017-271200-
NORTHWEST AND NORTH CENTRAL SOUTH DAKOTA

CITY           SKY/WX    TMP DP  RH WIND       PRES   REMARKS
BUFFALO          N/A     57  40  52 SE13      29.69F
FAITH            N/A     57  42  57 SE24G32   29.82F
MOBRIDGE       CLOUDY    60  42  51 SE21G26   29.88F
$$

SDZ012>016-024>037-041>051-057-063-072>074-271200-
SOUTHWEST AND SOUTH CENTRAL SOUTH DAKOTA

CITY           SKY/WX    TMP DP  RH WIND       PRES   REMARKS
RAPID CTY ARPT PTCLDY    61  45  55 S16       29.84F
PIERRE         PTCLDY    54  42  64 SE12      29.92F
CUSTER         CLEAR     56  51  84 SW8       29.97F
ELLSWORTH AFB  PTCLDY    62  47  57 S17       29.81F
PHILIP         PTCLDY    61  47  59 S7        29.89F
PINE RIDGE     CLEAR     62  53  72 S39G48    29.87F
SPEARFISH      FAIR      73  50  43 S15G28    29.77F
WINNER         FAIR      59  45  59 S20G25    29.97F
$$

SDZ004>011-016>023-039-040-271200-
NORTHEAST SOUTH DAKOTA

CITY           SKY/WX    TMP DP  RH WIND       PRES   REMARKS
ABERDEEN       CLEAR     44  41  89 SE8       30.00F
WATERTOWN      CLOUDY    48  41  76 S7        30.04F
BROOKINGS      CLOUDY    48  41  76 S9        30.08S
SISSETON         N/A     49  41  74 S9        30.02S
$$

SDZ017-020-022-023-036>040-048>070-271200-
SOUTHEAST SOUTH DAKOTA

CITY           SKY/WX    TMP DP  RH WIND       PRES   REMARKS
SIOUX FALLS    PTCLDY    54  43  66 S12       30.08F
HURON          CLEAR     50  41  71 S10       30.03S
CHAMBERLAIN    CLEAR     54  46  74 SE8       30.00S
MITCHELL       CLEAR     50  43  77 S9        30.04F
YANKTON        PTCLDY    48  42  80 VRB5      30.07F
$$

ABBREVIATIONS USED IN REMARKS
   TC - TEMPERATURE IN CELSIUS
  WCI - WIND CHILL INDEX
   HX - HEAT INDEX
  VSB - VISIBILITY





USA.gov is the U.S. government's official web portal to all federal, state and local government web resources and services.